Sarasota, FL

9:23 PM EDT on October 19, 2019 (GMT -0400)
Sarasota-bradenton

Weather History for KSRQ - September, 2019

Change the Weather History Date:

Wednesday, September 18, 2019

  Actual Average Record
Temperature  
Mean Temperature 85 °F 81 °F  
Max Temperature 96 °F 89 °F 95 °F (2005)
Min Temperature 74 °F 74 °F 67 °F (1957)
Degree Days  
Heating Degree Days 0 0  
Month to date heating degree days 0 0  
Since 1 July heating degree days 0 0  
Cooling Degree Days 20 16  
Month to date cooling degree days 387 305  
Year to date cooling degree days 3245 2602  
Growing Degree Days 35 (Base 50)    
Moisture  
Dew Point 73 °F    
Average Humidity 75    
Maximum Humidity 91    
Minimum Humidity 41    
Precipitation  
Precipitation 1.08 in 0.23 in 3.70 in (1947)
Month to date precipitation 1.91 5.00  
Year to date precipitation 43.30 43.33  
Sea Level Pressure  
Sea Level Pressure 29.95 in    
Wind  
Wind Speed 5 mph ()    
Max Wind Speed 21 mph    
Max Gust Speed 28 mph    
Visibility 8.0 miles    
Events Rain , Thunderstorm    
T = Trace of Precipitation, MM = Missing Value Source: Averaged Metar Reports

Daily Weather History Graph

Daily Weather History Graph

Search for Another Location

Airport or City:

Astronomy

Sep. 18, 2019 Rise Set
Actual Time 7:16 AM EDT 7:31 PM EDT
Civil Twilight 6:53 AM EDT 7:54 PM EDT
Nautical Twilight 6:26 AM EDT 8:22 PM EDT
Astronomical Twilight 5:58 AM EDT 8:49 PM EDT
Moon 10:26 PM EDT (9/18) 10:59 AM EDT (9/18)
Length of Visible Light 13h 01m
Length of Day
12h 14m
Waning Gibbous, 82% of the Moon is Illuminated
Sep 18
Waning Gibbous
Sep 21
Last Quarter
Sep 28
New
Oct 5
First Quarter
Oct 13
Full

Hourly Weather History & Observations

Time (EDT) Temp. Heat Index Dew Point Humidity Pressure Visibility Wind Dir Wind Speed Gust Speed Precip Events Conditions
12:53 AM 82.0 °F 88.6 °F 75.0 °F 79% 29.94 in 10.0 mi NNE 4.6 mph - N/A   Clear
1:53 AM 80.1 °F 85.1 °F 75.0 °F 85% 29.93 in 10.0 mi ENE 4.6 mph - N/A   Clear
2:53 AM 78.1 °F - 73.9 °F 87% 29.92 in 10.0 mi ENE 3.5 mph - N/A   Clear
3:53 AM 77.0 °F - 72.0 °F 84% 29.92 in 10.0 mi East 4.6 mph - N/A   Clear
4:53 AM 75.9 °F - 70.0 °F 82% 29.92 in 10.0 mi Calm Calm - N/A   Clear
5:53 AM 75.0 °F - 70.0 °F 84% 29.93 in 10.0 mi Calm Calm - N/A   Clear
6:53 AM 75.0 °F - 70.0 °F 84% 29.94 in 10.0 mi NE 3.5 mph - N/A   Clear
7:53 AM 75.9 °F - 70.0 °F 82% 29.96 in 10.0 mi NNE 3.5 mph - N/A   Clear
8:53 AM 82.0 °F 87.9 °F 73.9 °F 76% 29.97 in 10.0 mi NE 4.6 mph - N/A   Clear
9:53 AM 84.0 °F 91.2 °F 73.9 °F 72% 29.97 in 10.0 mi NE 8.1 mph - N/A   Clear
10:53 AM 88.0 °F 96.5 °F 73.9 °F 63% 29.97 in 10.0 mi Variable 5.8 mph - N/A   Clear
11:53 AM 90.0 °F 96.9 °F 72.0 °F 55% 29.97 in 10.0 mi ESE 5.8 mph - N/A   Partly Cloudy
12:53 PM 91.9 °F 99.5 °F 72.0 °F 52% 29.96 in 10.0 mi Variable 5.8 mph - N/A   Scattered Clouds
1:53 PM 95.0 °F 99.5 °F 68.0 °F 41% 29.95 in 10.0 mi NE 8.1 mph - N/A   Partly Cloudy
2:53 PM 95.0 °F 99.5 °F 68.0 °F 41% 29.93 in 10.0 mi North - - N/A   Scattered Clouds
3:53 PM 91.9 °F 103.9 °F 75.9 °F 59% 29.91 in 10.0 mi WNW 9.2 mph - N/A   Scattered Clouds
4:53 PM 93.9 °F 106.9 °F 75.9 °F 56% 29.89 in 10.0 mi Variable 3.5 mph - N/A   Clear
5:53 PM 90.0 °F 95.4 °F 70.0 °F 52% 29.90 in 10.0 mi NNE 4.6 mph - 0.00 in   Partly Cloudy
6:53 PM 89.1 °F 97.0 °F 73.0 °F 59% 29.91 in 10.0 mi Variable 5.8 mph - N/A   Clear
7:53 PM 84.9 °F 88.8 °F 69.1 °F 59% 29.93 in 10.0 mi East 6.9 mph - N/A   Scattered Clouds
8:15 PM 80.1 °F 83.8 °F 72.0 °F 76% 29.95 in 4.0 mi NNE 20.7 mph 27.6 mph 0.13 in Rain , Thunderstorm Heavy Thunderstorms and Rain
8:18 PM 78.1 °F - 73.0 °F 84% 29.95 in 1.8 mi NNE 16.1 mph 27.6 mph 0.30 in Rain , Thunderstorm Heavy Thunderstorms and Rain
8:28 PM 77.0 °F - 72.0 °F 84% 29.96 in 2.0 mi North 18.4 mph 25.3 mph 0.49 in Rain , Thunderstorm Heavy Thunderstorms and Rain
8:36 PM 77.0 °F - 71.1 °F 82% 29.97 in 1.5 mi NE 8.1 mph - 0.74 in Rain , Thunderstorm Heavy Thunderstorms and Rain
8:44 PM 77.0 °F - 73.0 °F 88% 29.97 in 3.0 mi East 10.4 mph - 0.80 in Rain , Thunderstorm Thunderstorms and Rain
8:53 PM 77.0 °F - 73.0 °F 88% 29.96 in 2.5 mi East 4.6 mph - 0.93 in Rain , Thunderstorm Heavy Thunderstorms and Rain
8:56 PM 77.0 °F - 73.9 °F 90% 29.96 in 3.0 mi East 4.6 mph - 0.01 in Rain , Thunderstorm Heavy Thunderstorms and Rain
9:05 PM 77.0 °F - 73.9 °F 90% 29.96 in 4.0 mi East 6.9 mph - 0.08 in Rain , Thunderstorm Heavy Rain
9:15 PM 77.0 °F - 73.9 °F 90% 29.95 in 4.0 mi ESE 6.9 mph - 0.12 in Rain Light Rain
9:53 PM 78.1 °F - 73.9 °F 87% 29.97 in 10.0 mi Calm Calm - 0.12 in   Mostly Cloudy
10:53 PM 79.0 °F - 75.0 °F 88% 29.98 in 10.0 mi East 4.6 mph - 0.00 in   Overcast
11:53 PM 78.1 °F - 73.9 °F 87% 29.99 in 10.0 mi NE 4.6 mph - 0.01 in Rain Light Rain